Location: Mercogliano
(40.9167°N, 14.7333°E)
Time: 13:46:48
(UTC+00:00)

Cosmos 1844 - Pass Details

Date: 18 September 2020
Orbit: 824 x 866 km, 70.9° (Epoch: 29 October)

Event Time Altitude Azimuth Distance (km) Brightness Sun altitude
Rises 19:24:35 0° 206° (SSW) 3,415 6.9 -26.3°
Reaches altitude 10° 19:27:03 10° 208° (SSW) 2,477 6.1 -26.7°
Maximum altitude 19:32:45 76° 294° (WNW) 876 3.8 -27.6°
Drops below altitude 10° 19:38:25 10° 21° (NNE) 2,464 6.2 -28.5°
Sets 19:40:51 0° 23° (NNE) 3,396 6.9 -28.9°
